Regional Weather Roundup
Issued by NWS

Home | Current Version | Previous Version | Graphics & Text | Print | Product List | Glossary On
Versions: 1 2 3 4 5 6 7 8 9 10 11 12 13 14 15 16 17 18 19 20 21 22 23 24 25 26 27 28 29 30 31 32 33 34 35 36 37 38 39 40 41 42 43 44 45 46 47 48 49 50
000
ASUS43 KOAX 170710
RWRNE

WEATHER ROUNDUP FOR NEBRASKA
NATIONAL WEATHER SERVICE OMAHA NE
200 AM CDT THU APR 17 2014

NOTES: SATELLITE DATA IS BEING USED TO AUGMENT CLOUD COVER ABOVE
       12000 FEET.
       "FAIR" INDICATES FEW OR NO CLOUDS BELOW 12,000 FEET WITH NO
       SIGNIFICANT WEATHER AND/OR OBSTRUCTIONS TO VISIBILITY.

  * THESE STATIONS DO NOT REPORT WEATHER SUCH AS RAIN...SNOW OR FOG.

NEZ001>004-019>022-054>056-170800-
NEBRASKA PANHANDLE

CITY           SKY/WX    TMP DP  RH WIND       PRES   REMARKS
SCOTTSBLUFF    CLOUDY    35  30  82 SE9       30.16S WCI  28
ALLIANCE       CLOUDY    32  27  81 SE5       30.18R WCI  27
CHADRON        CLOUDY    33  29  85 S10       30.18R WCI  25
KIMBALL        CLOUDY    31  28  90 SE6       30.12R WCI  25
SIDNEY         CLOUDY    32  29  88 E7        30.16S FOG     WCI  26
$$

NEZ057>060-069>072-079>082-170800-
SOUTHWEST NEBRASKA

CITY           SKY/WX    TMP DP  RH WIND       PRES   REMARKS
NORTH PLATTE   CLOUDY    31  24  75 NE8       30.21R WCI  23
IMPERIAL       MOCLDY    32  27  81 N13       30.18R HAZE    WCI  22
LEXINGTON      CLOUDY    32  26  79 N13       30.20F WCI  23
MCCOOK         CLOUDY    31  28  89 E5        30.22R WCI  26
OGALLALA       CLOUDY    33  28  80 CALM      30.20S
$$

NEZ005>010-023>029-035>040-094-170800-
NORTH CENTRAL NEBRASKA

CITY           SKY/WX    TMP DP  RH WIND       PRES   REMARKS
VALENTINE      CLOUDY    28  21  75 NE7       30.22R WCI  21
AINSWORTH      CLOUDY    29  23  77 N8        30.21R WCI  22
BROKEN BOW     CLOUDY    29  24  82 N9        30.22R WCI  20
O`NEILL        CLOUDY    31  23  73 N10G17    30.21S WCI  22
ORD            CLOUDY    30  23  75 NW10      30.23R WCI  21
THEDFORD       CLOUDY    31  25  77 N6        30.21R WCI  25
$$

NEZ041-046>049-061>064-073>077-083>087-170800-
SOUTH CENTRAL NEBRASKA

CITY           SKY/WX    TMP DP  RH WIND       PRES   REMARKS
GRAND ISLAND   CLOUDY    33  24  69 N17       30.21R WCI  22
AURORA         CLOUDY    33  26  76 N15       30.20R WCI  23
HASTINGS       CLOUDY    33  25  72 N10       30.21R WCI  25
HEBRON         CLOUDY    36  28  72 N14       30.19S WCI  27
HOLDREGE       CLOUDY    33  26  76 N14G20    30.20R WCI  23
KEARNEY *      CLOUDY    32  25  74 N18       30.21R WCI  20
YORK           CLOUDY    32  27  80 N15G21    30.19R WCI  22
$$

NEZ011>018-030>034-042>045-170800-
NORTHEAST NEBRASKA

CITY           SKY/WX    TMP DP  RH WIND       PRES   REMARKS
NORFOLK        CLOUDY    31  24  75 N17       30.18R WCI  19
ALBION         CLOUDY    31  24  74 N12G20    30.20R WCI  22
BLAIR          CLOUDY    33  27  77 NW18G25   30.15R WCI  22
COLUMBUS *     CLOUDY    32  21  64 N14       30.20S WCI  22
FREMONT        CLOUDY    34  27  76 NW16      30.19R WCI  23
TEKAMAH        CLOUDY    35  26  69 NW17      30.18R WCI  25
$$

NEZ050>053-065>068-078-088>093-170800-
SOUTHEAST NEBRASKA

CITY           SKY/WX    TMP DP  RH WIND       PRES   REMARKS
LINCOLN        CLOUDY    36  25  64 N21       30.19R WCI  25
OMAHA EPPLEY   CLOUDY    35  28  75 NW18G26   30.15R WCI  24
BEATRICE       CLOUDY    36  27  69 N16       30.17R WCI  26
FALLS CITY     CLOUDY    38  29  70 NW15G21   30.14R WCI  29
NEBRASKA CITY  CLOUDY    35  28  75 N20G26    30.14S WCI  24
PLATTSMOUTH    CLOUDY    35  27  72 NW17      30.14R WCI  25
$$

NEZ044-045-051>053-067-170800-
OMAHA AREA

CITY           SKY/WX    TMP DP  RH WIND       PRES   REMARKS
OMAHA EPPLEY   CLOUDY    35  28  75 NW18G26   30.15R WCI  24
BLAIR          CLOUDY    33  27  77 NW18G25   30.15R WCI  22
FREMONT        CLOUDY    34  27  76 NW16      30.19R WCI  23
MILLARD        CLOUDY    35  27  71 NW18G24   30.15F WCI  24
OFFUTT AFB     CLOUDY    36  29  77 N15       30.14R WCI  26
PLATTSMOUTH    CLOUDY    35  27  72 NW17      30.14R WCI  25
WAHOO          CLOUDY    33  25  73 N21G29    30.18R WCI  21
$$



USA.gov is the U.S. government's official web portal to all federal, state and local government web resources and services.